Home   Weather   Ankara   Past weeks

Flag for Turkey Past Weather in Ankara, Turkey — Yesterday and Last 2 Weeks

Now
14 °F

Clear.


Feels Like: 8 °F
Forecast: 15 / 46 °F
Wind: 3 mph from North

Location: Ankara / Esenboga

Current Time: Dec 9, 2016 at 4:56:49 am

Latest Report: Dec 9, 2016 at 4:20 am


Visibility: 10 mi

Pressure: 30.39 "Hg (27.14 "Hg at 871m altitude)

Humidity: 85%

Dew Point: 10 °F

Location of AnkaraLocation

Past Weather in Ankara — Graph

°F

Ankara Temperature Yesterday

Maximum temperature yesterday: 36 °F (at 3:20 pm)
Minimum temperature yesterday: 16 °F (at 8:20 am)
Average temperature yesterday: 26 °F

High & Low Weather Summary for the Past Weeks

 TemperatureHumidityPressure
High59 °F (Nov 24, 4:20 pm)100% (Dec 3, 5:20 am)30.54 "Hg (Dec 3, 5:20 am)
Low12 °F (Nov 24, 6:20 am)10% (Nov 24, 4:20 pm)29.74 "Hg (Dec 2, 1:20 am)
Average32 °F64%30.13 "Hg
* Reported Nov 24 3:20 am — Dec 9 3:50 am, Ankara, Weather by CustomWeather, © 2016

Note: Actual official high and low records may vary slightly from our data, if they occured in-between our weather recording intervals... More about our weather records

Advertising

Ankara Weather History for the Previous 24 Hours

Scroll right to see more
 ConditionsComfort  
Time TempWeatherWind HumidityBarometerVisibility
3:50 am
Fri, Dec 9
14 °FClear.2 mph85%30.39 "Hg10 mi
3:20 am14 °FClear.1 mph85%30.42 "Hg10 mi
2:50 am16 °FClear.2 mph79%30.42 "Hg10 mi
2:20 am16 °FPassing clouds.3 mph86%30.42 "HgN/A
1:50 am18 °FClear.1 mph79%30.42 "Hg10 mi
1:20 am16 °FClear.2 mph79%30.42 "Hg10 mi
12:50 am19 °FClear.2 mph79%30.42 "Hg10 mi
12:20 am18 °FClear.1 mph79%30.45 "Hg10 mi
11:50 pm
Thu, Dec 8
18 °FClear.1 mph79%30.42 "Hg10 mi
11:20 pm19 °FClear.2 mph79%30.45 "Hg10 mi
10:50 pm19 °FClear.2 mph79%30.45 "Hg10 mi
10:20 pm23 °FClear.2 mph68%30.45 "Hg10 mi
9:50 pm23 °FClear.3 mph68%30.45 "Hg10 mi
9:20 pm21 °FClear.1 mph74%30.45 "Hg10 mi
8:50 pm23 °FClear.2 mph68%30.45 "Hg10 mi
8:20 pm25 °FClear.2 mph63%30.45 "Hg10 mi
7:50 pm25 °FPassing clouds.5 mph63%30.45 "HgN/A
7:20 pm25 °FClear.5 mph63%30.45 "Hg10 mi
6:50 pm25 °FClear.2 mph63%30.45 "Hg10 mi
6:20 pm28 °FPassing clouds.3 mph55%30.45 "HgN/A
5:50 pm28 °FClear.5 mph59%30.45 "Hg10 mi
5:20 pm30 °FSunny.8 mph55%30.45 "Hg10 mi
4:50 pm32 °FSunny.7 mph47%30.45 "Hg10 mi
4:20 pm34 °FPassing clouds.6 mph41%30.45 "HgN/A
3:50 pm36 °FSunny.2 mph38%30.45 "Hg10 mi
3:20 pm36 °FSunny.2 mph35%30.45 "Hg10 mi
2:50 pm34 °FPassing clouds.5 mph41%30.45 "HgN/A
2:20 pm34 °FPassing clouds.5 mph41%30.48 "HgN/A
1:50 pm34 °FPassing clouds.5 mph41%30.48 "HgN/A
1:20 pm32 °FSunny.2 mph44%30.48 "Hg10 mi
12:50 pm32 °FPassing clouds.3 mph47%30.51 "HgN/A
12:20 pm32 °FPassing clouds.5 mph47%30.51 "HgN/A
11:50 am32 °FSunny.3 mph51%30.54 "Hg10 mi
11:20 am30 °FSunny.2 mph55%30.54 "Hg10 mi
10:50 am28 °FPassing clouds.5 mph64%30.54 "HgN/A
10:20 am27 °FPassing clouds.5 mph69%30.54 "HgN/A
9:50 am25 °FPassing clouds.3 mph69%30.54 "HgN/A
9:20 am21 °FSunny.5 mph80%30.54 "Hg10 mi
8:50 am19 °FSunny.5 mph79%30.54 "Hg10 mi
8:20 am16 °FPassing clouds.7 mph86%30.54 "HgN/A
7:50 am18 °FClear.6 mph79%30.54 "Hg10 mi
7:20 am19 °FPassing clouds.2 mph79%30.51 "HgN/A
6:50 am19 °FPassing clouds.1 mph86%30.51 "HgN/A
6:20 am19 °FPassing clouds.2 mph79%30.51 "HgN/A
5:50 am19 °FPassing clouds.5 mph79%30.51 "HgN/A
5:20 am21 °FPassing clouds.5 mph74%30.51 "HgN/A
4:50 am25 °FPassing clouds.2 mph69%30.51 "HgN/A
4:20 am23 °FPassing clouds.5 mph74%30.51 "HgN/A
Weather by CustomWeather, © 2016

See weather overviewHow to use our weather pages